| time (UTC) | temp F | wind direction | speed knots | gust knots | rain 1hr in | rain 24hr in | rain mn in | humidity % | barometer mb |
| 20260504150828 | 61 | 234 | 3.5 | 11.3 | 0.00 | 0.00 | 0.00 | 43 | |
| 20260504150327 | 60 | 180 | 5.2 | 15.6 | 0.00 | 0.00 | 0.00 | 43 | |
| 20260504140840 | 58 | 210 | 4.3 | 9.6 | 0.00 | 0.00 | 0.00 | 45 | |
| 20260504140318 | 58 | 206 | 3.5 | 8.7 | 0.00 | 0.00 | 0.00 | 45 | |
| 20260504130815 | 56 | 260 | 3.5 | 10.4 | 0.00 | 0.00 | 0.00 | 47 | |
| 20260504130316 | 55 | 141 | 3.5 | 10.4 | 0.00 | 0.00 | 0.00 | 47 | |
| 20260504110326 | 48 | 143 | 2.6 | 7.0 | 0.00 | 0.00 | 0.00 | 56 | |
| 20260504100323 | 46 | 164 | 2.6 | 5.2 | 0.00 | 0.00 | 0.00 | 60 | |
| 20260504081819 | 47 | 234 | 0.9 | 3.5 | 0.00 | 0.00 | 0.00 | 60 | |
| 20260504081319 | 47 | 233 | 0.9 | 3.5 | 0.00 | 0.00 | 0.00 | 60 | |
| 20260504080819 | 47 | 215 | 0.0 | 0.0 | 0.00 | 0.00 | 0.00 | 60 | |
| 20260504080340 | 47 | 218 | 0.0 | 1.7 | 0.00 | 0.00 | 0.00 | 60 | |
| 20260504070328 | 45 | 335 | 0.0 | 0.0 | 0.00 | 0.00 | 0.00 | 69 | |
| 20260504050328 | 45 | 27 | 0.0 | 0.0 | 0.00 | 0.00 | 0.00 | 74 | |
| 20260504045828 | 45 | 27 | 0.0 | 0.0 | 0.00 | 0.00 | 0.00 | 74 | |
| 20260504045329 | 45 | 27 | 0.0 | 0.0 | 0.00 | 0.00 | 0.00 | 74 | |
| 20260504044830 | 45 | 27 | 0.0 | 0.0 | 0.00 | 0.00 | 0.00 | 73 | |
| 20260504044328 | 45 | 27 | 0.0 | 0.0 | 0.00 | 0.00 | 0.00 | 73 | |
| 20260504043829 | 45 | 27 | 0.0 | 0.0 | 0.00 | 0.00 | 0.00 | 72 | |
| 20260504043329 | 45 | 27 | 0.0 | 0.0 | 0.00 | 0.00 | 0.00 | 71 | |
| 20260504042828 | 46 | 27 | 0.0 | 0.0 | 0.00 | 0.00 | 0.00 | 71 | |
| 20260504042329 | 46 | 27 | 0.0 | 0.0 | 0.00 | 0.00 | 0.00 | 71 | |
| 20260504041827 | 46 | 27 | 0.0 | 0.0 | 0.00 | 0.00 | 0.00 | 71 | |
| 20260504041325 | 46 | 27 | 0.0 | 0.0 | 0.00 | 0.00 | 0.00 | 70 | |
| 20260504040826 | 46 | 27 | 0.0 | 0.0 | 0.00 | 0.00 | 0.00 | 70 | |
| 20260504040325 | 46 | 27 | 0.0 | 0.0 | 0.00 | 0.00 | 0.00 | 69 | |
| 20260504035825 | 46 | 27 | 0.0 | 0.0 | 0.00 | 0.00 | 0.00 | 69 | |
| 20260504035346 | 46 | 333 | 0.0 | 0.0 | 0.00 | 0.00 | 0.00 | 69 | |
| 20260504034825 | 45 | 327 | 0.0 | 0.0 | 0.00 | 0.00 | 0.00 | 69 | |
| 20260504034324 | 45 | 327 | 0.0 | 0.0 | 0.00 | 0.00 | 0.00 | 69 | |
| 20260504033825 | 45 | 328 | 0.0 | 0.0 | 0.00 | 0.00 | 0.00 | 69 | |
| 20260504033327 | 45 | 327 | 0.0 | 0.0 | 0.00 | 0.00 | 0.00 | 69 | |
| 20260504032825 | 45 | 327 | 0.0 | 0.0 | 0.00 | 0.00 | 0.00 | 69 | |
| 20260504032325 | 45 | 327 | 0.0 | 0.0 | 0.00 | 0.00 | 0.00 | 69 | |
| 20260504031825 | 45 | 327 | 0.0 | 0.0 | 0.00 | 0.00 | 0.00 | 69 | |
| 20260504031325 | 45 | 327 | 0.0 | 0.0 | 0.00 | 0.00 | 0.00 | 68 | |
| 20260504030825 | 45 | 327 | 0.0 | 0.0 | 0.00 | 0.00 | 0.00 | 68 | |
| 20260504030323 | 45 | 327 | 0.0 | 0.0 | 0.00 | 0.00 | 0.00 | 68 | |
| 20260504025823 | 45 | 327 | 0.0 | 0.0 | 0.00 | 0.00 | 0.00 | 68 | |
| 20260504025322 | 45 | 327 | 0.0 | 0.0 | 0.00 | 0.00 | 0.00 | 67 | |
| 20260504024822 | 45 | 327 | 0.0 | 0.0 | 0.00 | 0.00 | 0.00 | 67 | |
| 20260504024314 | 45 | 327 | 0.0 | 0.0 | 0.00 | 0.00 | 0.00 | 67 | |
| 20260504023814 | 45 | 327 | 0.0 | 0.0 | 0.00 | 0.00 | 0.00 | 68 | |
| 20260504023314 | 45 | 327 | 0.0 | 0.0 | 0.00 | 0.00 | 0.00 | 67 | |
| 20260504022814 | 45 | 327 | 0.0 | 0.0 | 0.00 | 0.00 | 0.00 | 67 | |
| 20260504022316 | 45 | 327 | 0.0 | 0.0 | 0.00 | 0.00 | 0.00 | 67 | |
| 20260504021816 | 45 | 327 | 0.0 | 0.0 | 0.00 | 0.00 | 0.00 | 67 | |
| 20260504021315 | 45 | 327 | 0.0 | 0.9 | 0.00 | 0.00 | 0.00 | 66 | |
| 20260504020814 | 45 | 327 | 0.0 | 0.9 | 0.00 | 0.00 | 0.00 | 66 | |
| 20260504020335 | 45 | 328 | 0.0 | 2.6 | 0.00 | 0.00 | 0.00 | 66 | |
| 20260504015854 | 45 | 328 | 0.0 | 0.0 | 0.00 | 0.00 | 0.00 | 66 | |
| 20260504015349 | 45 | 332 | 0.0 | 0.0 | 0.00 | 0.00 | 0.00 | 65 | |
| 20260504014827 | 45 | 332 | 0.0 | 0.0 | 0.00 | 0.00 | 0.00 | 65 | |
| 20260504014328 | 45 | 330 | 0.0 | 0.0 | 0.00 | 0.00 | 0.00 | 65 | |
| 20260504013829 | 45 | 330 | 0.0 | 0.0 | 0.00 | 0.00 | 0.00 | 65 | |
| 20260504013328 | 45 | 330 | 0.0 | 0.0 | 0.00 | 0.00 | 0.00 | 64 | |
| 20260504012829 | 46 | 330 | 0.0 | 0.0 | 0.00 | 0.00 | 0.00 | 63 | |
| 20260504012329 | 46 | 330 | 0.0 | 1.7 | 0.00 | 0.00 | 0.00 | 63 | |
| 20260504011848 | 46 | 330 | 0.0 | 1.7 | 0.00 | 0.00 | 0.00 | 63 | |
| 20260504011326 | 46 | 324 | 0.0 | 0.0 | 0.00 | 0.00 | 0.00 | 62 | |
| 20260504010827 | 46 | 323 | 0.0 | 2.6 | 0.00 | 0.00 | 0.00 | 62 | |
| 20260504010328 | 47 | 323 | 0.0 | 2.6 | 0.00 | 0.00 | 0.00 | 61 | |
| 20260504005828 | 47 | 249 | 0.0 | 0.0 | 0.00 | 0.00 | 0.00 | 61 | |
| 20260504005349 | 47 | 248 | 0.0 | 0.0 | 0.00 | 0.00 | 0.00 | 60 | |
| 20260504004828 | 47 | 246 | 0.0 | 0.0 | 0.00 | 0.00 | 0.00 | 60 | |
| 20260504004328 | 48 | 245 | 0.0 | 0.0 | 0.00 | 0.00 | 0.00 | 59 | |
| 20260504003828 | 48 | 245 | 0.0 | 0.0 | 0.00 | 0.00 | 0.00 | 59 | |
| 20260504003328 | 49 | 236 | 0.0 | 0.0 | 0.00 | 0.00 | 0.00 | 58 | |
| 20260504002828 | 49 | 235 | 0.0 | 0.0 | 0.00 | 0.00 | 0.00 | 56 | |
| 20260504002327 | 50 | 235 | 0.0 | 0.0 | 0.00 | 0.00 | 0.00 | 53 | |
| 20260504001826 | 50 | 235 | 0.0 | 0.0 | 0.00 | 0.00 | 0.00 | 52 | |
| 20260504001325 | 50 | 235 | 0.0 | 2.6 | 0.00 | 0.00 | 0.00 | 50 | |
| 20260504000825 | 51 | 235 | 0.0 | 2.6 | 0.00 | 0.00 | 0.00 | 50 | |
| 20260504000324 | 51 | 230 | 0.0 | 0.0 | 0.00 | 0.00 | 0.00 | 50 | |
| 20260503235825 | 51 | 228 | 0.0 | 0.0 | 0.00 | 0.00 | 0.00 | 49 | |
| 20260503235326 | 51 | 230 | 0.0 | 0.0 | 0.00 | 0.00 | 0.00 | 49 | |
| 20260503234826 | 51 | 256 | 0.0 | 3.5 | 0.00 | 0.00 | 0.00 | 49 | |
| 20260503234325 | 51 | 256 | 0.0 | 4.3 | 0.00 | 0.00 | 0.00 | 49 | |
| 20260503233825 | 52 | 206 | 0.9 | 3.5 | 0.00 | 0.00 | 0.00 | 49 | |
| 20260503233324 | 52 | 241 | 0.0 | 0.0 | 0.00 | 0.00 | 0.00 | 48 | |
| 20260503232824 | 52 | 257 | 0.0 | 0.0 | 0.00 | 0.00 | 0.00 | 49 | |
| 20260503232324 | 52 | 253 | 0.0 | 5.2 | 0.00 | 0.00 | 0.00 | 48 | |
| 20260503231824 | 52 | 252 | 1.7 | 5.2 | 0.00 | 0.00 | 0.00 | 48 | |
| 20260503231343 | 52 | 187 | 0.0 | 5.2 | 0.00 | 0.00 | 0.00 | 48 | |
| 20260503230823 | 52 | 262 | 0.9 | 8.7 | 0.00 | 0.00 | 0.00 | 48 | |
| 20260503230321 | 52 | 214 | 0.0 | 8.7 | 0.00 | 0.00 | 0.00 | 49 | |
| 20260503225844 | 52 | 232 | 3.5 | 7.0 | 0.00 | 0.00 | 0.00 | 48 | |
| 20260503225344 | 52 | 286 | 2.6 | 5.2 | 0.00 | 0.00 | 0.00 | 49 | |
| 20260503224821 | 51 | 257 | 1.7 | 7.8 | 0.00 | 0.00 | 0.00 | 50 | |
| 20260503224342 | 51 | 232 | 0.9 | 7.0 | 0.00 | 0.00 | 0.00 | 50 | |
| 20260503223819 | 51 | 247 | 2.6 | 14.8 | 0.00 | 0.00 | 0.00 | 50 | |
| 20260503223337 | 51 | 256 | 6.1 | 14.8 | 0.00 | 0.00 | 0.00 | 49 | |
| 20260503222815 | 51 | 247 | 4.3 | 7.8 | 0.00 | 0.00 | 0.00 | 49 | |
| 20260503222316 | 51 | 226 | 2.6 | 9.6 | 0.00 | 0.00 | 0.00 | 48 | |
| 20260503221818 | 51 | 228 | 4.3 | 11.3 | 0.00 | 0.00 | 0.00 | 48 | |
| 20260503221317 | 52 | 315 | 5.2 | 11.3 | 0.00 | 0.00 | 0.00 | 47 | |
| 20260503220817 | 52 | 281 | 5.2 | 10.4 | 0.00 | 0.00 | 0.00 | 46 | |
| 20260503220317 | 52 | 273 | 5.2 | 9.6 | 0.00 | 0.00 | 0.00 | 45 | |
| 20260503215838 | 52 | 246 | 3.5 | 11.3 | 0.00 | 0.00 | 0.00 | 45 | |
| 20260503215316 | 52 | 264 | 5.2 | 11.3 | 0.00 | 0.00 | 0.00 | 44 | |
| 20260503214837 | 53 | 285 | 5.2 | 10.4 | 0.00 | 0.00 | 0.00 | 44 | |
| 20260503214316 | 52 | 303 | 5.2 | 10.4 | 0.00 | 0.00 | 0.00 | 44 | |
| 20260503213816 | 52 | 285 | 5.2 | 14.8 | 0.00 | 0.00 | 0.00 | 44 | |
| 20260503213316 | 53 | 285 | 9.6 | 14.8 | 0.00 | 0.00 | 0.00 | 43 | |
| 20260503212816 | 53 | 359 | 3.5 | 12.2 | 0.00 | 0.00 | 0.00 | 42 | |
| 20260503212316 | 53 | 287 | 3.5 | 16.5 | 0.00 | 0.00 | 0.00 | 42 | |
| 20260503211815 | 53 | 340 | 7.8 | 16.5 | 0.00 | 0.00 | 0.00 | 42 | |
| 20260503211314 | 53 | 266 | 3.5 | 11.3 | 0.00 | 0.00 | 0.00 | 41 | |
| 20260503210833 | 53 | 297 | 4.3 | 11.3 | 0.00 | 0.00 | 0.00 | 40 | |
| 20260503210331 | 54 | 220 | 4.3 | 8.7 | 0.00 | 0.00 | 0.00 | 40 | |
| 20260503205832 | 53 | 260 | 3.5 | 10.4 | 0.00 | 0.00 | 0.00 | 40 | |
| 20260503205331 | 53 | 266 | 5.2 | 10.4 | 0.00 | 0.00 | 0.00 | 39 | |
| 20260503204830 | 52 | 272 | 4.3 | 9.6 | 0.00 | 0.00 | 0.00 | 39 | |
| 20260503204351 | 52 | 289 | 4.3 | 13.9 | 0.00 | 0.00 | 0.00 | 39 | |
| 20260503203830 | 52 | 280 | 8.7 | 13.9 | 0.00 | 0.00 | 0.00 | 38 | |
| 20260503203345 | 53 | 268 | 5.2 | 10.4 | 0.00 | 0.00 | 0.00 | 37 | |
| 20260503202822 | 52 | 289 | 3.5 | 12.2 | 0.00 | 0.00 | 0.00 | 37 | |
| 20260503202325 | 53 | 264 | 6.1 | 12.2 | 0.00 | 0.00 | 0.00 | 36 | |
| 20260503201825 | 53 | 293 | 0.9 | 7.8 | 0.00 | 0.00 | 0.00 | 36 | |
| 20260503201324 | 53 | 245 | 4.3 | 11.3 | 0.00 | 0.00 | 0.00 | 35 | |
| 20260503200824 | 53 | 265 | 6.1 | 14.8 | 0.00 | 0.00 | 0.00 | 35 | |
| 20260503200325 | 53 | 326 | 3.5 | 11.3 | 0.00 | 0.00 | 0.00 | 33 | |
| 20260503195846 | 54 | 303 | 5.2 | 13.9 | 0.00 | 0.00 | 0.00 | 33 | |
| 20260503195344 | 54 | 283 | 4.3 | 12.2 | 0.00 | 0.00 | 0.00 | 33 | |
| 20260503194822 | 53 | 299 | 4.3 | 12.2 | 0.00 | 0.00 | 0.00 | 33 | |
| 20260503194323 | 54 | 318 | 5.2 | 14.8 | 0.00 | 0.00 | 0.00 | 33 | |
| 20260503193823 | 53 | 225 | 5.2 | 14.8 | 0.00 | 0.00 | 0.00 | 33 | |
| 20260503193321 | 53 | 297 | 5.2 | 17.4 | 0.00 | 0.00 | 0.00 | 33 | |
| 20260503192821 | 53 | 273 | 4.3 | 17.4 | 0.00 | 0.00 | 0.00 | 33 | |
| 20260503192320 | 53 | 241 | 6.1 | 16.5 | 0.00 | 0.00 | 0.00 | 34 | |
| 20260503191819 | 53 | 257 | 6.1 | 16.5 | 0.00 | 0.00 | 0.00 | 34 | |
| 20260503191319 | 53 | 292 | 4.3 | 9.6 | 0.00 | 0.00 | 0.00 | 35 | |
| 20260503190820 | 52 | 301 | 4.3 | 9.6 | 0.00 | 0.00 | 0.00 | 35 | |
| 20260503190319 | 52 | 222 | 4.3 | 18.2 | 0.00 | 0.00 | 0.00 | 36 | |
| 20260503185814 | 51 | 283 | 9.6 | 18.2 | 0.00 | 0.00 | 0.00 | 36 | |
| 20260503185333 | 51 | 314 | 8.7 | 15.6 | 0.00 | 0.00 | 0.00 | 36 | |
| 20260503184833 | 51 | 251 | 3.5 | 11.3 | 0.00 | 0.00 | 0.00 | 36 | |
| 20260503184333 | 51 | 233 | 5.2 | 11.3 | 0.00 | 0.00 | 0.00 | 37 | |
| 20260503183833 | 50 | 256 | 3.5 | 10.4 | 0.00 | 0.00 | 0.00 | 38 | |
| 20260503183332 | 50 | 314 | 5.2 | 11.3 | 0.00 | 0.00 | 0.00 | 37 | |
| 20260503182830 | 51 | 291 | 6.1 | 11.3 | 0.00 | 0.00 | 0.00 | 37 | |
| 20260503182329 | 51 | 282 | 2.6 | 9.6 | 0.00 | 0.00 | 0.00 | 38 | |
| 20260503181829 | 50 | 206 | 4.3 | 10.4 | 0.00 | 0.00 | 0.00 | 38 | |
| 20260503181329 | 50 | 272 | 3.5 | 11.3 | 0.00 | 0.00 | 0.00 | 37 | |
| 20260503180851 | 50 | 251 | 5.2 | 11.3 | 0.00 | 0.00 | 0.00 | 38 | |
| 20260503180330 | 51 | 262 | 5.2 | 12.2 | 0.00 | 0.00 | 0.00 | 39 | |
| 20260503175830 | 50 | 328 | 3.5 | 12.2 | 0.00 | 0.00 | 0.00 | 39 | |
| 20260503175329 | 50 | 334 | 5.2 | 12.2 | 0.00 | 0.00 | 0.00 | 39 | |
| 20260503174828 | 50 | 301 | 2.6 | 9.6 | 0.00 | 0.00 | 0.00 | 40 | |
| 20260503174327 | 49 | 274 | 5.2 | 13.0 | 0.00 | 0.00 | 0.00 | 41 | |
| 20260503173828 | 48 | 326 | 5.2 | 13.0 | 0.00 | 0.00 | 0.00 | 41 | |
| 20260503173348 | 48 | 301 | 3.5 | 9.6 | 0.00 | 0.00 | 0.00 | 41 | |
| 20260503172846 | 48 | 294 | 6.1 | 9.6 | 0.00 | 0.00 | 0.00 | 40 | |
| 20260503172324 | 48 | 264 | 2.6 | 12.2 | 0.00 | 0.00 | 0.00 | 41 | |
| 20260503171824 | 47 | 247 | 5.2 | 12.2 | 0.00 | 0.00 | 0.00 | 41 | |
| 20260503171324 | 47 | 324 | 5.2 | 13.0 | 0.00 | 0.00 | 0.00 | 42 | |
| 20260503170824 | 47 | 292 | 7.0 | 13.0 | 0.00 | 0.00 | 0.00 | 42 | |
| 20260503170323 | 47 | 257 | 0.0 | 13.0 | 0.00 | 0.00 | 0.00 | 44 |